Regional Weather Roundup
Issued by NWS

Home | Current Version | Previous Version | Graphics & Text | Print | Product List | Glossary On
Versions: 1 2 3 4 5 6 7 8 9 10 11 12 13 14 15 16 17 18 19 20 21 22 23 24 25 26 27 28 29 30 31 32 33 34 35 36 37 38 39 40 41 42 43 44 45 46 47 48 49 50
000
ASUS43 KDMX 221006
RWRIA

WEATHER ROUNDUP FOR IOWA
NATIONAL WEATHER SERVICE DES MOINES IA
500 AM CDT SUN APR 22 2018

NOTE: "FAIR" INDICATES FEW OR NO CLOUDS BELOW 12,000 FEET WITH NO
SIGNIFICANT WEATHER AND/OR OBSTRUCTIONS TO VISIBILITY.

* - THESE STATIONS ARE NOT NWS STATIONS...THUS NOT UNDER NWS
QUALITY CONTROL.  THEY ALSO DO NOT REPORT WEATHER SUCH
AS PRECIPITATION OR FOG.

IAZ001>003-012>014-020>022-031>034-043>046-221100-
   NORTHWEST IOWA

CITY           SKY/WX    TMP DP  RH WIND       PRES   REMARKS
CARROLL *      PTCLDY    39  34  81 CALM      30.25F
CHEROKEE *     CLOUDY    39  35  83 CALM      30.27F
DENISON *      CLOUDY    41  34  75 NE8       30.26S
LE MARS *      PTCLDY    41  36  81 VRB5      30.26S
ORANGE CITY *  CLEAR     41  37  87 E5        30.26F
SHELDON *      CLOUDY    36  34  93 E7        30.26S WCI  30
SIOUX CITY     CLOUDY    36  31  82 E3        30.26S
SPENCER        CLOUDY    36  32  85 E6        30.28F WCI  31
STORM LAKE *   PTCLDY    39  36  87 E10       30.27R WCI  32
$$

IAZ055>058-069>071-079>083-090>094-221100-
   SOUTHWEST IOWA

CITY           SKY/WX    TMP DP  RH WIND       PRES   REMARKS
ATLANTIC *     CLOUDY    48  32  53 E9        30.21S
AUDUBON *      CLOUDY    43  34  70 CALM      30.24S
CLARINDA *     CLOUDY    48  32  53 E12       30.21S
COUNCIL BLFS * CLOUDY    46  32  57 NE7G13    30.21R
CRESTON *      CLOUDY    46  32  57 NE14      30.21S
HARLAN  *      CLOUDY    45  32  61 CALM      30.26S
LAMONI         CLOUDY    48  31  51 NE12      30.19R
RED OAK *      CLOUDY    48  32  53 NE9       30.20S
SHENANDOAH *   CLOUDY    48  32  53 NE12      30.18F
$$

IAZ047>049-059>061-072>074-084-221100-
   CENTRAL IOWA

CITY           SKY/WX    TMP DP  RH WIND       PRES   REMARKS
AMES           CLOUDY    42  33  70 E5        30.26F
ANKENY *       CLOUDY    45  32  61 E7        30.26S
BOONE *        CLOUDY    41  34  75 NE6       30.24F
CHARITON *     CLOUDY    46  32  57 E14       30.21S
DES MOINES     CLOUDY    47  32  56 NE10      30.24F
GRINNELL*      CLOUDY    42  32  68 NE10      30.27S
KNOXVILLE *    CLOUDY    46  30  53 E12       30.22S
MARSHALLTOWN   CLOUDY    41  35  79 E9        30.27F
NEWTON *       CLOUDY    45  32  61 E12       30.25F
PELLA *        PTCLDY    47  30  53 E8        30.25S
PERRY *        FAIR      41  30  64 NE6       30.25S
$$

IAZ004>006-015-016-023>025-035-036-221100-
   NORTH CENTRAL IOWA

CITY           SKY/WX    TMP DP  RH WIND       PRES   REMARKS
ALGONA *       PTCLDY    41  34  75 E5        30.29F
CLARION *      CLOUDY    41  36  81 E9        30.29S
ESTHERVILLE    PTCLDY    34  31  88 NE5       30.29S WCI  30
FORT DODGE *   CLOUDY    42  37  82 NE8       30.28F
MASON CITY     CLOUDY    38  34  85 N3        30.32S
FOREST CITY *  FAIR      41  34  75 E3        30.31S
WEBSTER CITY * CLOUDY    43  37  81 E8        30.25F
IOWA FALLS *   FAIR      44  37  76 E5        30.30S
$$

IAZ007>011-017>019-026>030-037>042-050>054-066-221100-
   NORTHEAST IOWA

CITY           SKY/WX    TMP DP  RH WIND       PRES   REMARKS
CEDAR RAPIDS   FAIR      45  31  58 E13       30.28F
CHARLES CITY * CLOUDY    43  36  75 E7        30.32S
CLINTON *      FAIR      44  25  47 E12       30.31F
DECORAH *      MOCLDY    41  34  75 E6        30.31F
DUBUQUE        FAIR      43  30  60 NE6       30.33R
MONTICELLO *   FAIR      45  32  61 NE5       30.31F
OELWEIN *      CLOUDY    43  37  81 E8        30.31F
WATERLOO       FAIR      41  36  82 E7        30.30F
$$

IAZ064-065-067-068-078-221100-
   EAST CENTRAL IOWA

CITY           SKY/WX    TMP DP  RH WIND       PRES   REMARKS
DAVENPORT      FAIR      44  23  43 E12       30.30F
IOWA CITY      FAIR      46  30  53 NE9       30.29F
MT. PLEASANT * PTCLDY    41  30  65 NE10      30.24S
MUSCATINE *    MOCLDY    48  27  43 E7        30.28S
QUAD CITIES    FAIR      45  25  45 E10       30.28F
$$

IAZ062-063-075>077-085>089-095>099-221100-
   SOUTHEAST IOWA

CITY           SKY/WX    TMP DP  RH WIND       PRES   REMARKS
BURLINGTON     CLOUDY    48  28  46 E10       30.24S
FAIRFIELD *    CLOUDY    43  28  56 NE12      30.24S
FORT MADISON * PTCLDY    48  32  53 E10       30.24S
KEOKUK *       CLOUDY    48  32  53 E16       30.21S
OSKALOOSA *    CLOUDY    46  29  51 E17       30.24S
CENTERVILLE *    N/A     46  32  57 NE8       30.21F
OTTUMWA        CLOUDY    46  30  53 E10       30.23S
WASHINGTON *   MOCLDY    43  30  61 NE7       30.27S
$$

ABBREVIATIONS USED IN REMARKS
   TC - TEMPERATURES IN CELSIUS
  WCI - WIND CHILL INDEX
   HX - HEAT INDEX
  VSB - VISIBILITY
$$





USA.gov is the U.S. government's official web portal to all federal, state and local government web resources and services.